Theta_e
340 340 341 348 348 349 349 349 349 349 349 350 349 349 348 348 347 347 347 347 345 343 343 342 341 341 341 341 340 340 340 341 340 341 347 346 347 346 346 345 347 346 346 346 345 346 347 347 347 346 345 344 344 344 343 343 343 341 342 342 341 341 340 340 340 341 342 340 342 342 343 344 345 345 345 344 343 342 341 341 340 337 338 341 345
340 340 340 344 349 349 349 349 349 349 350 350 349 348 348 347 347 347 347 346 344 342 342 342 341 341 341 340 340 340 340 340 340 340 345 347 346 345 345 345 346 345 345 345 345 345 346 345 344 343 344 343 343 343 342 342 342 341 340 340 339 338 339 340 340 340 341 341 340 340 340 342 342 343 343 342 342 341 341 341 340 336 336 341 342
341 341 342 345 349 349 349 349 349 349 349 350 349 348 347 347 347 346 346 346 345 343 342 342 341 341 341 340 340 339 340 339 339 342 343 346 345 345 345 345 344 344 344 343 343 343 344 343 342 343 343 343 343 343 342 340 339 339 338 338 338 339 338 339 339 339 339 339 340 340 339 339 339 340 341 340 341 340 340 340 339 338 334 340 339
340 342 343 345 347 348 349 349 349 349 349 349 348 348 347 347 347 346 346 346 344 343 341 342 342 341 341 340 340 339 340 339 339 338 341 345 344 344 345 345 344 344 344 342 342 342 342 342 342 342 342 342 342 342 342 340 338 337 336 338 339 338 338 338 338 338 337 337 337 336 333 331 335 338 338 339 339 339 338 338 338 338 339 339 339
342 343 343 344 345 347 349 349 349 349 349 349 348 347 347 347 347 346 347 345 343 343 343 342 342 342 341 341 340 339 340 339 339 341 347 346 346 345 344 343 343 341 341 342 340 340 341 341 341 342 342 341 342 341 340 339 337 337 337 337 338 337 337 337 337 337 336 335 335 332 327 330 332 337 337 338 338 338 338 338 339 342 340 341 342
343 343 343 343 344 345 348 349 349 349 349 349 348 347 347 346 346 346 346 346 345 343 342 341 341 341 341 340 340 339 340 339 342 346 346 346 345 344 343 343 343 343 342 341 340 340 340 341 342 342 343 342 341 341 340 340 339 337 336 337 337 337 336 336 336 335 334 332 331 327 327 329 331 333 338 338 338 338 338 337 340 342 342 342 342
343 343 343 343 343 344 347 349 349 349 349 349 348 347 347 346 346 346 346 344 343 343 342 341 341 340 340 340 340 339 339 338 344 346 346 346 345 344 343 343 341 340 337 338 339 339 339 340 341 342 343 342 340 339 339 337 338 338 336 336 336 336 336 336 335 334 333 328 325 325 326 327 329 331 337 338 337 340 341 341 341 342 342 341 342
342 343 343 342 343 345 346 349 349 349 349 349 347 347 347 346 346 346 346 345 344 343 342 342 341 341 339 338 339 338 337 342 347 346 346 345 344 343 343 342 342 340 339 339 339 338 338 340 340 341 342 342 340 338 338 337 338 337 337 337 338 337 337 337 336 335 334 328 327 329 331 331 332 335 342 343 342 341 341 342 342 342 341 341 338
341 342 342 342 342 344 346 347 349 349 349 348 347 347 347 346 346 346 346 345 344 342 342 341 341 341 339 338 338 338 337 339 342 344 344 343 341 340 340 341 340 338 337 338 338 338 339 339 340 341 342 342 341 339 338 340 340 339 339 340 340 338 337 336 335 334 332 330 330 330 331 332 333 334 340 341 342 342 341 339 340 342 340 339 338
341 341 341 341 342 342 345 347 349 349 349 348 348 348 347 346 346 346 346 345 344 343 341 341 341 340 340 340 338 337 337 337 342 342 342 344 343 341 340 341 340 338 337 337 337 337 338 339 340 341 341 342 341 341 341 341 341 341 340 340 339 338 337 335 334 332 329 330 331 332 334 336 333 335 339 341 341 341 339 335 336 337 337 338 338
341 341 341 341 341 342 347 349 349 348 348 348 347 347 347 347 346 346 346 345 343 342 341 341 341 340 339 339 338 338 338 341 345 344 344 344 344 344 343 340 338 337 337 337 338 337 339 339 340 340 341 342 341 341 341 341 341 340 340 339 338 337 336 334 332 329 330 330 330 332 335 337 333 334 340 340 341 339 337 337 337 338 337 338 338
340 340 341 341 344 341 346 347 348 348 348 347 347 347 347 346 346 345 345 345 344 342 341 340 340 340 339 339 338 338 345 344 344 343 343 343 343 343 342 339 337 337 336 336 336 337 338 339 340 340 340 340 340 340 340 340 340 340 339 338 337 336 334 333 329 328 328 330 331 331 331 332 334 336 339 339 339 338 337 337 337 338 338 338 337
340 341 341 341 341 341 344 347 346 348 348 348 347 347 347 346 346 346 345 345 344 342 341 340 340 340 339 338 337 337 344 343 342 342 342 342 342 342 341 339 338 337 336 336 336 336 338 338 339 339 339 339 339 339 339 339 339 338 337 337 336 335 333 331 328 328 329 330 330 330 330 331 332 337 339 338 339 338 337 337 337 337 337 337 336
340 340 340 341 341 344 340 343 344 346 348 347 347 347 347 346 346 346 345 344 343 342 341 340 340 340 339 338 337 336 341 340 340 339 340 341 341 340 339 338 337 337 336 335 335 336 338 338 338 338 338 338 338 338 337 337 337 336 335 334 334 332 330 329 330 328 328 328 329 328 328 330 332 336 335 338 338 338 335 334 334 334 333 333 333
339 340 341 342 342 342 341 340 343 343 345 346 346 347 347 347 346 345 345 344 343 341 340 340 340 340 339 338 338 337 337 337 337 339 338 339 339 338 338 337 336 336 335 334 335 336 337 336 338 336 337 337 337 336 335 335 334 334 333 332 331 330 327 324 324 324 325 327 327 328 328 330 335 335 334 337 336 334 333 333 332 332 331 330 330
339 340 341 342 340 340 341 341 338 339 342 344 344 345 346 346 346 345 345 344 343 341 339 339 340 339 339 338 338 337 337 337 336 336 337 338 338 337 336 335 335 335 335 334 336 336 336 336 335 335 335 336 336 335 334 334 334 333 332 331 330 329 326 325 324 324 323 323 323 325 327 331 335 334 336 337 335 333 332 331 331 331 331 330 331
339 339 341 340 339 339 339 340 337 335 336 337 340 342 343 345 345 345 344 344 343 341 339 339 339 339 339 338 338 339 338 336 335 335 336 336 335 334 334 333 334 334 334 333 334 336 336 334 334 334 334 335 335 335 334 333 332 331 330 330 329 327 324 323 325 325 326 325 323 321 324 328 333 336 336 335 334 333 333 332 332 331 330 330 328
338 339 339 340 340 339 339 339 337 338 337 335 334 339 341 344 344 343 343 343 343 341 340 339 339 339 339 339 337 338 338 337 337 335 335 335 334 334 333 332 333 333 332 332 334 334 333 332 333 333 333 334 333 333 333 331 330 328 327 326 326 325 323 323 322 323 324 325 323 326 327 333 333 334 333 332 332 332 332 331 331 331 330 328 327
337 338 339 339 339 339 339 338 338 337 337 337 337 336 335 340 341 341 341 342 342 340 339 338 338 338 337 336 334 332 332 334 335 335 334 333 332 331 333 333 332 332 332 331 332 333 331 330 331 332 332 332 332 331 330 329 328 326 325 322 321 319 319 320 320 321 321 322 324 325 329 333 332 332 333 335 333 332 331 331 331 329 328 325 324
335 336 337 339 339 338 338 338 338 337 336 336 336 337 333 333 337 338 339 340 340 339 336 334 333 332 331 330 327 326 325 326 326 328 330 333 330 327 331 331 331 330 331 330 330 331 329 329 329 330 331 330 330 329 327 327 325 324 321 320 318 316 315 316 316 318 320 323 325 327 330 331 333 333 334 333 331 330 330 330 329 327 324 324 325
336 336 336 337 338 338 338 338 338 337 336 336 336 336 335 331 333 333 334 337 337 334 333 328 325 324 324 321 322 324 323 324 324 323 321 323 323 324 329 331 330 330 330 330 331 330 328 328 328 327 326 325 323 324 324 324 323 321 319 316 314 312 311 312 313 316 319 323 325 327 330 331 331 334 332 334 332 332 331 329 327 325 324 323 324
335 335 336 337 337 338 337 338 338 337 336 336 337 336 334 333 336 336 335 333 330 327 326 327 326 324 321 323 323 322 322 321 321 324 321 322 323 323 327 331 330 330 329 329 330 329 328 327 327 326 324 321 317 312 313 317 318 318 315 313 310 309 310 310 312 314 317 323 326 328 329 330 332 334 332 332 331 329 327 325 324 323 322 323 322
333 335 336 337 338 338 338 338 338 337 336 336 337 336 335 336 335 335 334 330 330 328 327 325 324 323 323 323 322 321 321 320 320 321 321 320 323 323 327 328 330 329 329 329 329 328 326 326 324 322 320 315 309 308 309 309 310 312 311 309 308 308 309 309 311 312 314 318 325 328 329 330 330 330 330 329 328 326 325 323 322 321 321 321 321
334 335 336 337 337 337 337 338 338 337 336 336 337 336 336 336 335 335 335 334 331 329 326 325 323 323 323 322 322 321 320 320 322 322 321 321 322 322 325 326 327 326 327 327 327 326 324 322 320 316 312 308 306 306 307 307 307 308 307 307 307 307 308 308 309 310 312 316 319 327 328 328 328 330 329 327 325 323 323 322 321 320 321 320 320
332 331 334 337 337 337 337 336 337 338 337 337 337 336 336 336 335 335 336 335 333 331 327 325 323 323 322 322 321 321 320 319 319 319 319 319 319 320 321 321 321 321 321 317 314 311 308 306 306 306 304 305 305 305 306 306 306 306 306 306 306 306 306 306 307 308 310 314 316 324 325 326 326 327 326 324 323 322 321 320 320 320 319 320 320
326 329 333 336 337 338 338 338 337 338 338 338 337 336 336 336 336 336 336 335 335 332 328 325 323 322 322 322 321 320 319 318 318 317 317 317 317 316 317 317 316 317 316 313 309 307 305 304 303 303 302 303 303 303 304 305 305 304 305 304 304 304 305 305 305 305 307 310 314 322 325 327 326 325 323 323 325 322 321 322 321 320 320 319 318
327 330 330 334 336 338 339 338 337 338 338 339 338 335 336 337 337 336 336 335 335 333 330 326 323 323 322 321 320 318 318 318 317 317 315 315 316 315 314 315 316 315 313 310 308 305 304 303 302 301 301 301 301 301 302 303 303 304 303 303 303 303 303 303 303 303 304 306 310 318 325 326 325 323 323 325 323 322 321 321 320 321 319 318 317
324 328 328 330 332 336 338 338 338 338 338 339 338 336 336 336 337 334 336 334 335 334 332 328 324 323 323 322 320 319 318 317 317 316 315 314 314 314 313 312 314 313 310 309 306 304 303 302 301 300 300 300 300 300 301 301 302 302 302 302 302 301 301 301 302 302 302 303 305 313 318 324 325 323 324 325 324 323 322 321 322 321 319 318 317
323 326 328 329 330 334 336 337 338 337 338 338 337 336 336 336 336 335 335 332 335 335 334 330 325 324 325 322 319 318 317 317 317 316 314 314 313 312 312 312 312 310 308 307 306 304 302 301 300 299 298 298 299 299 299 299 299 300 301 301 300 300 300 300 300 300 300 300 301 307 314 318 323 323 324 324 324 322 322 321 320 320 318 317 317
324 325 326 328 330 331 333 335 336 337 337 337 337 336 335 335 335 335 336 333 336 336 335 333 328 326 328 323 320 319 318 317 316 316 314 313 312 311 310 310 310 308 307 307 305 304 302 301 300 299 298 297 297 298 298 297 297 297 298 298 298 298 297 298 298 298 297 298 298 301 309 314 318 323 323 323 322 320 321 320 319 319 317 317 316
323 323 325 327 328 329 331 333 334 333 336 336 336 336 336 335 335 336 336 334 336 336 335 335 332 328 330 325 322 319 318 317 316 315 314 313 311 310 309 309 308 306 308 307 305 304 303 302 300 299 298 296 296 296 297 296 295 295 296 296 296 296 296 297 296 296 296 296 296 297 300 308 313 316 322 321 320 321 321 319 319 319 318 317 316
322 323 325 326 326 328 330 332 333 332 334 335 333 335 335 335 335 335 335 335 335 336 335 335 332 331 331 328 325 323 319 319 317 315 313 312 311 310 309 308 308 305 309 307 305 303 301 299 299 298 297 296 295 295 295 296 294 294 294 294 294 294 294 294 294 294 294 294 294 294 296 299 306 310 313 320 319 319 319 318 317 317 316 317 317
323 324 325 324 326 327 330 331 332 331 332 333 333 334 335 335 334 335 336 335 335 335 334 334 334 334 332 330 327 325 322 320 317 316 313 313 311 309 309 308 307 307 309 306 304 302 300 298 297 297 296 296 294 294 295 294 294 292 292 292 293 292 292 291 291 292 291 292 292 292 293 295 296 302 307 312 316 318 317 316 316 315 315 315 315
322 322 323 324 326 328 329 330 331 331 330 333 332 332 333 333 334 335 334 335 335 334 334 335 334 334 333 332 330 327 323 322 318 316 314 314 312 310 310 309 307 308 308 306 304 301 298 297 296 295 296 295 294 294 294 292 292 292 292 291 291 290 290 290 289 289 289 290 290 292 292 293 294 295 297 304 308 313 317 315 315 314 314 313 313
319 319 322 324 324 326 328 330 328 330 328 330 329 330 330 331 331 333 334 334 334 335 335 334 334 334 334 333 332 329 325 324 321 317 315 315 313 310 310 310 308 310 308 306 304 300 298 296 295 294 293 293 294 294 294 292 293 292 292 292 290 290 290 290 289 288 288 288 290 290 291 292 292 292 293 293 299 305 311 316 315 312 311 312 311
320 321 322 323 324 325 326 328 327 328 328 328 329 329 329 329 329 327 332 333 333 334 334 335 335 334 333 333 333 331 328 326 324 320 316 316 316 312 311 311 311 312 309 307 304 300 297 296 295 295 293 293 293 292 292 291 292 291 291 291 290 290 289 289 288 287 287 288 288 288 288 289 289 291 292 290 292 297 305 310 312 315 311 312 311
320 320 321 322 323 324 324 326 326 327 328 327 327 326 326 326 327 328 330 331 332 332 333 334 334 334 333 333 333 332 329 328 326 324 320 318 318 316 313 313 313 312 310 308 304 300 298 297 295 295 295 293 293 291 291 292 291 291 291 290 290 290 289 289 288 288 288 286 285 286 287 287 289 290 286 287 288 290 298 304 306 308 310 310 310
320 319 321 323 323 323 324 325 326 327 327 327 325 325 324 323 324 326 324 329 330 331 332 332 333 334 333 332 333 332 329 329 328 326 324 322 321 318 316 315 314 313 311 309 305 301 299 298 295 295 295 293 292 291 291 291 291 291 289 289 289 289 289 289 290 290 286 285 284 285 285 285 285 285 285 285 286 287 288 294 299 300 303 310 313
319 319 320 322 322 322 322 322 323 325 325 325 322 321 320 320 319 322 322 326 328 329 329 330 331 333 333 332 332 332 329 330 329 327 326 324 323 320 318 316 315 313 311 309 305 301 300 298 296 295 294 294 293 292 291 291 291 290 289 289 289 288 289 289 288 286 286 286 286 286 285 284 284 284 284 284 284 285 286 286 286 287 291 304 308
317 319 319 319 321 321 320 321 321 323 323 322 320 318 317 317 317 312 316 322 326 325 325 328 329 331 331 332 332 332 331 330 330 329 328 325 324 322 319 317 316 314 311 308 305 301 299 298 296 294 293 293 293 292 292 290 290 289 289 288 288 288 288 288 288 288 288 286 285 284 284 283 284 283 283 283 284 283 284 284 286 284 286 294 302
313 317 318 318 320 321 319 319 320 320 321 320 318 319 317 314 315 317 320 321 323 324 323 324 326 329 330 331 331 331 331 330 329 329 328 324 325 323 320 317 316 314 311 309 306 302 301 299 297 295 292 291 291 292 291 290 288 287 287 287 287 288 290 288 287 287 287 286 284 283 284 283 282 282 282 282 282 282 282 283 283 283 284 284 288
310 314 317 318 319 319 319 320 318 318 320 321 320 320 320 320 319 319 319 314 317 320 323 323 324 323 325 328 330 331 331 329 326 329 327 326 325 323 319 316 315 314 312 310 307 303 301 299 296 295 294 292 290 291 291 290 288 286 285 285 286 286 289 286 287 286 286 286 284 283 283 282 282 282 282 282 281 282 282 282 282 282 283 284 285
311 312 316 316 316 317 317 318 317 317 318 319 319 319 319 317 317 312 315 307 308 312 316 318 318 320 320 323 327 329 330 330 329 327 328 327 325 322 320 317 316 313 311 309 305 303 301 298 296 294 292 294 292 292 291 292 289 288 287 285 283 283 285 285 285 286 286 285 284 282 282 281 282 281 281 281 281 281 282 281 281 282 283 283 283
306 306 310 314 315 315 315 315 315 315 316 316 315 315 311 308 303 304 306 308 308 304 309 312 316 318 319 320 322 326 327 328 328 326 326 326 325 323 321 319 317 314 313 308 305 303 300 298 297 296 294 290 290 290 292 292 290 288 284 286 283 284 282 282 283 284 284 284 284 283 282 281 281 281 281 282 282 281 281 281 281 282 282 282 282
305 307 309 312 315 315 315 315 315 314 314 312 311 308 307 305 303 304 303 304 304 306 309 311 315 317 318 318 320 319 322 323 324 324 322 325 325 324 322 321 318 315 313 310 306 303 301 299 298 296 295 293 290 290 291 292 290 294 290 284 282 283 283 283 282 282 283 283 283 283 283 281 281 281 281 281 280 281 282 281 281 282 282 282 282
304 306 309 311 311 312 312 312 311 311 312 310 309 309 310 309 306 307 305 303 306 305 311 313 313 314 316 318 316 317 318 318 319 320 320 319 322 322 320 319 317 315 314 311 308 305 301 299 298 298 296 296 294 290 289 292 292 292 292 292 288 288 285 282 283 280 282 282 281 282 283 282 280 282 280 280 281 281 283 282 281 282 282 282 283
304 304 304 306 307 308 309 310 311 310 309 307 307 308 307 308 309 310 309 309 309 307 305 307 311 311 313 313 314 314 315 316 317 317 317 317 319 320 320 319 317 316 313 312 309 306 303 301 299 299 298 298 296 291 290 290 292 291 291 291 292 289 287 283 282 281 279 280 281 281 281 281 281 281 281 280 281 281 282 282 282 283 282 283 283
302 300 303 302 305 307 307 308 308 307 307 307 307 308 309 307 307 307 307 308 308 308 305 305 304 308 310 311 312 312 313 314 315 315 315 316 317 318 317 317 317 317 313 313 311 308 305 303 301 301 300 299 297 295 293 293 290 289 291 290 291 289 288 288 288 286 283 280 279 279 278 280 280 281 281 281 281 281 281 282 282 283 282 282 282
299 302 303 304 304 303 305 304 306 305 305 306 307 307 308 308 308 308 306 306 306 305 302 302 303 303 306 306 307 309 310 310 311 312 312 314 313 315 316 316 316 315 311 314 312 309 306 303 301 301 300 300 298 298 296 293 292 292 290 290 291 289 288 287 289 287 282 281 279 279 280 279 280 280 281 281 281 281 282 282 283 283 283 283 283
298 299 300 300 300 300 302 303 304 304 305 305 306 306 307 307 307 306 307 305 302 299 299 302 302 300 303 303 303 305 307 307 308 309 309 310 311 313 315 316 316 315 309 312 311 308 306 304 302 301 301 300 300 298 297 296 294 295 293 292 289 287 287 285 287 284 281 283 282 280 280 279 278 281 281 281 281 281 282 282 282 283 282 283 283
297 298 298 298 299 300 301 303 304 303 304 305 305 306 306 306 307 306 306 305 302 302 300 300 300 299 302 302 301 303 304 307 307 306 306 308 309 309 312 314 314 312 310 312 310 308 306 304 303 302 301 301 300 298 298 297 295 295 295 295 292 289 289 287 285 284 285 281 281 281 280 281 281 278 280 282 282 282 282 282 282 282 282 283 282
Wind_Speed
4 5 3 4 6 7 9 10 10 12 12 13 13 12 13 14 14 14 14 14 15 14 14 15 14 14 14 14 14 14 15 14 13 13 18 18 18 17 17 17 18 19 19 19 19 19 20 20 20 20 20 20 20 19 19 20 21 21 20 21 21 20 21 19 18 16 17 19 21 21 19 19 20 21 21 21 20 19 16 18 16 14 12 18 23
8 4 3 3 6 9 10 10 11 12 12 13 12 12 13 14 13 13 13 14 14 14 14 14 14 15 14 14 14 14 14 15 14 12 18 19 18 17 16 18 17 19 20 19 19 19 19 20 20 20 19 19 18 19 19 20 20 20 20 20 20 19 18 16 16 16 16 16 19 21 20 21 21 20 21 21 20 19 17 18 19 12 11 21 23
6 5 3 4 8 9 10 10 11 11 12 13 13 12 14 13 13 13 14 14 14 14 14 14 13 14 15 14 14 14 14 14 13 15 16 18 17 17 17 18 18 19 20 19 19 19 19 19 19 18 18 17 17 17 18 19 20 20 20 19 20 19 17 16 16 15 16 17 17 17 18 21 20 20 20 21 21 20 17 19 20 18 14 23 20
8 5 4 5 8 8 9 10 11 10 12 12 12 12 13 13 13 13 14 14 13 14 13 13 13 14 14 15 14 15 14 14 13 14 14 16 15 17 18 18 20 20 19 19 18 18 18 19 19 18 17 17 16 17 18 19 20 18 19 20 19 19 17 16 15 15 14 14 13 9 6 8 13 21 21 20 21 21 17 20 21 21 22 20 21
7 5 4 5 6 7 9 10 12 11 12 12 11 12 13 13 13 13 14 14 13 13 13 13 13 13 13 14 15 15 14 14 14 16 17 18 18 18 19 19 18 18 19 18 18 17 19 19 19 17 16 17 17 18 21 21 20 18 19 20 18 17 16 15 14 13 13 12 9 6 5 8 9 19 21 22 21 19 17 19 21 22 21 23 23
8 6 5 5 5 6 9 10 12 12 12 12 11 12 13 13 13 13 13 13 13 12 13 13 13 12 13 14 14 14 13 13 16 17 17 17 17 17 18 18 19 19 19 19 17 17 19 19 18 17 17 17 18 18 20 21 20 18 18 18 17 17 15 14 14 13 12 10 9 5 6 6 7 11 22 21 21 17 19 20 21 21 21 24 24
10 5 6 5 5 6 9 10 12 12 12 12 11 12 13 13 13 13 13 13 12 12 12 12 12 12 12 12 12 14 15 14 17 17 17 16 16 16 17 17 18 18 17 17 17 17 19 19 18 17 17 17 19 19 20 19 18 18 18 18 18 16 15 14 14 12 11 6 5 5 5 4 5 6 20 20 21 21 21 22 22 22 22 22 22
6 5 5 5 5 7 9 11 12 13 13 12 12 12 12 13 13 13 13 13 12 12 12 12 12 12 12 12 12 12 13 17 18 17 17 16 16 17 17 17 19 18 17 16 17 18 18 18 17 17 18 18 19 20 19 19 19 19 19 18 16 15 14 14 13 11 10 6 5 5 6 6 7 8 19 19 21 22 21 22 21 22 22 22 17
7 5 5 5 5 9 9 10 13 13 13 13 13 13 13 13 12 13 13 13 12 12 12 11 12 12 12 12 12 11 12 16 16 17 16 15 14 14 15 17 18 18 17 16 16 18 18 18 17 18 19 18 18 19 20 19 19 19 18 17 16 16 15 13 12 9 6 5 6 7 8 8 8 9 17 21 21 21 19 17 18 22 23 19 21
6 5 4 4 5 9 9 10 13 14 14 13 13 13 13 12 12 13 12 12 12 12 12 11 11 12 12 11 11 11 11 14 15 14 14 15 15 15 16 17 18 18 16 17 17 19 19 18 18 18 19 19 19 19 19 19 20 19 18 17 16 16 14 13 11 7 6 6 7 7 8 9 7 8 17 21 23 22 19 16 15 14 15 21 23
6 5 4 4 5 9 10 11 10 11 13 13 13 13 12 12 12 13 12 12 12 12 11 11 11 11 11 11 11 11 13 14 15 15 16 15 16 17 17 17 18 17 16 17 17 19 18 18 17 18 18 19 19 19 18 18 18 18 18 17 16 15 14 13 8 6 6 7 7 7 10 13 8 8 20 23 23 23 18 18 19 20 23 23 23
7 5 5 4 7 9 9 11 12 12 11 12 13 13 13 12 12 13 12 12 12 11 11 11 10 10 10 11 10 11 16 15 14 14 14 15 16 17 16 18 17 17 15 17 17 17 17 17 17 17 18 18 18 19 18 18 18 18 17 17 16 15 15 13 6 7 6 7 7 7 6 7 8 14 23 22 22 23 22 22 22 22 22 23 23
8 7 6 6 5 8 10 11 11 12 12 13 13 13 12 13 13 13 13 12 12 11 11 11 10 10 10 10 9 11 15 15 14 14 14 15 15 15 15 17 17 16 15 16 16 17 16 16 17 17 17 18 18 19 19 19 19 18 18 16 15 14 13 10 6 6 6 6 5 5 5 6 8 19 20 21 21 21 20 22 23 24 24 24 24
9 8 7 7 6 10 11 11 11 11 11 11 12 12 13 13 13 13 13 13 13 12 12 12 11 11 10 10 9 10 14 12 13 12 14 15 16 15 16 16 16 15 15 16 16 16 16 16 17 17 16 17 18 18 18 17 18 18 16 16 15 13 10 7 7 5 5 5 4 5 5 6 9 18 19 21 21 21 21 21 21 23 23 23 23
10 9 8 6 6 6 11 11 11 11 11 11 11 12 13 14 14 14 14 14 14 13 13 12 12 12 11 11 10 9 11 12 12 12 12 13 15 15 15 15 15 15 15 16 17 16 16 17 17 17 17 17 17 17 17 17 16 16 15 13 12 10 11 6 5 5 5 5 4 4 4 5 15 18 18 20 21 20 19 19 19 20 21 22 21
11 9 8 7 5 5 6 9 10 10 10 10 11 11 11 12 13 13 13 14 14 13 13 13 13 12 12 11 11 10 10 11 11 11 11 13 14 14 14 14 14 15 15 16 17 16 17 17 17 17 18 18 18 18 17 17 16 15 15 14 13 11 11 7 5 5 5 4 3 3 4 7 16 18 20 22 24 22 21 22 22 21 22 22 23
9 8 9 7 6 5 6 6 6 10 10 10 10 10 9 10 12 12 11 12 12 13 13 13 13 12 12 12 11 9 9 10 12 11 11 10 12 12 12 14 14 15 15 16 17 16 16 17 17 18 18 18 18 18 17 18 17 16 15 14 13 13 12 9 6 5 4 4 3 3 4 5 16 21 22 23 23 22 23 23 23 23 23 23 25
9 9 9 9 7 6 6 5 6 6 5 8 9 9 9 10 11 11 11 12 12 12 12 12 11 11 9 9 8 8 9 10 10 12 12 13 12 10 12 14 15 15 15 15 16 15 15 16 17 17 18 18 18 18 17 17 17 16 16 15 14 13 12 11 6 6 6 5 5 5 5 13 20 20 22 21 23 22 22 22 22 22 24 25 24
8 9 9 9 8 7 7 7 6 5 6 5 5 7 10 10 11 10 11 12 11 11 11 10 10 10 10 9 8 8 9 10 11 11 11 10 10 10 11 13 14 15 15 15 16 15 15 16 17 17 17 18 18 17 17 17 16 16 15 14 12 13 13 8 6 6 5 5 5 5 7 16 16 20 23 24 23 22 21 22 23 24 25 22 20
8 8 9 8 8 8 6 6 6 7 6 5 6 5 8 11 11 10 11 12 12 11 11 11 11 11 10 9 10 8 8 9 12 9 10 10 9 7 10 11 14 15 15 15 16 15 16 16 16 16 17 17 17 16 16 16 15 15 14 13 12 13 8 6 6 6 5 6 6 6 11 15 17 21 22 22 21 20 20 22 23 23 22 20 20
6 8 8 8 8 8 8 7 7 8 6 7 6 6 7 10 10 11 11 12 11 12 12 12 11 10 10 9 9 6 5 5 7 7 9 7 9 9 10 11 14 15 15 15 16 15 16 16 17 17 17 17 15 15 15 15 14 14 13 11 13 9 6 6 6 5 5 6 7 6 10 12 18 22 22 23 22 22 23 24 24 22 20 20 20
8 7 7 8 8 8 9 8 7 8 7 6 5 5 5 7 7 7 7 9 10 11 9 7 8 6 10 8 5 5 5 4 5 7 6 7 8 10 10 11 13 12 13 15 15 15 15 16 16 16 16 14 12 8 9 11 13 12 11 13 9 6 6 6 6 5 5 6 6 9 16 18 21 22 23 23 22 24 22 21 21 20 19 19 19
8 8 7 10 8 8 8 8 8 8 7 6 6 5 7 5 6 7 7 9 9 9 7 7 6 7 5 6 6 5 5 4 4 5 5 9 8 10 10 11 12 11 12 14 14 14 15 16 16 15 14 13 8 6 6 6 7 11 10 8 6 6 6 7 6 5 5 4 4 10 15 19 20 21 20 21 20 20 20 19 19 17 17 17 17
9 9 8 8 9 8 9 9 9 9 8 6 6 6 6 6 6 6 6 7 7 7 7 7 6 6 6 5 6 5 5 5 6 9 8 6 7 9 11 11 11 11 13 9 11 11 14 14 14 13 8 6 6 6 6 6 6 6 6 6 6 6 7 6 5 4 4 4 2 10 14 16 19 19 20 19 18 16 15 18 17 17 19 18 18
8 6 6 8 10 9 9 8 8 8 8 7 7 6 6 6 6 6 6 7 6 6 6 6 7 7 6 6 6 6 6 6 6 5 5 5 5 5 6 6 6 6 8 5 6 7 7 6 6 7 5 6 6 6 6 6 6 6 6 5 5 5 6 5 5 5 5 4 5 9 11 14 15 17 17 17 17 18 17 16 17 18 16 17 17
4 7 9 9 9 9 10 8 9 8 9 8 8 8 8 7 7 7 7 7 7 7 6 6 6 7 6 6 6 7 6 6 6 5 5 5 5 4 5 5 5 5 4 6 6 6 6 6 6 6 5 5 6 5 5 6 6 6 6 5 5 5 5 5 5 5 5 5 8 7 11 15 18 18 14 15 20 18 15 17 17 17 17 17 17
8 9 7 7 8 9 9 9 9 9 10 8 7 7 7 7 7 7 7 7 7 8 7 6 6 7 7 7 8 7 7 6 6 6 6 5 6 5 5 5 6 6 5 6 6 5 6 6 6 6 5 6 6 5 5 5 5 7 6 6 5 5 5 5 5 5 5 6 7 14 14 16 16 14 13 19 15 16 17 16 16 16 16 15 16
6 8 8 8 9 11 10 10 10 9 9 9 9 8 7 8 8 8 8 8 8 8 8 7 7 7 7 7 7 7 8 7 7 7 6 5 6 6 5 5 5 5 5 5 7 6 6 6 6 5 6 5 6 5 5 5 5 5 6 5 5 5 5 5 5 5 6 6 7 12 12 8 11 12 15 14 17 17 15 15 16 16 16 15 15
9 10 8 9 10 10 10 11 11 11 9 9 9 8 7 8 7 8 8 8 7 8 9 8 8 7 7 8 7 8 6 7 7 7 6 6 6 6 6 6 5 5 5 5 6 7 6 6 6 6 5 5 5 5 5 5 4 4 6 5 5 6 5 4 3 6 6 5 6 10 13 12 10 12 15 15 16 15 14 15 15 14 15 14 14
12 10 9 10 9 9 11 12 11 11 10 9 8 8 8 9 8 8 8 8 7 7 9 8 8 8 7 8 8 8 8 8 8 6 8 7 6 5 6 6 6 6 5 6 5 6 7 6 7 7 7 6 5 4 5 5 5 4 4 5 5 5 3 3 5 6 5 5 5 7 13 12 14 9 15 13 14 13 15 14 15 14 14 13 13
9 11 11 10 9 10 11 11 11 10 9 10 9 9 9 9 9 8 8 8 8 7 8 9 8 8 8 10 9 8 8 7 8 8 6 7 7 6 6 6 6 5 5 6 6 6 6 6 7 7 7 7 6 5 5 6 5 5 3 5 5 5 4 4 5 4 5 5 5 5 8 13 14 16 8 13 12 14 14 14 13 14 14 13 12
12 14 12 9 9 13 12 11 11 10 10 10 9 9 9 9 9 8 9 8 9 7 7 8 9 9 9 10 9 9 8 8 9 9 8 8 7 7 6 7 7 6 5 6 6 6 6 6 6 6 6 6 6 5 5 6 5 4 4 5 3 5 4 5 5 4 4 5 5 5 5 7 12 14 16 12 11 14 13 13 12 12 12 13 12
11 13 11 10 13 12 12 12 11 11 12 12 10 10 9 8 9 9 8 9 9 8 8 8 8 9 9 10 10 10 9 9 8 10 9 8 8 7 7 7 7 6 5 6 7 6 7 7 6 6 7 6 7 6 4 5 5 4 4 3 4 5 4 5 5 4 5 4 5 5 5 5 5 10 14 15 17 8 14 11 12 10 11 10 11
11 9 9 12 11 8 9 9 11 13 13 11 10 9 9 9 8 8 8 9 8 8 8 8 8 8 9 10 10 10 10 8 10 9 9 9 8 8 9 8 7 6 6 7 7 6 7 8 7 7 6 7 7 6 6 6 4 4 4 3 4 4 4 5 5 4 3 5 4 5 5 5 5 5 6 13 14 17 11 10 11 10 11 9 10
7 7 13 15 11 11 10 9 12 13 12 12 11 10 9 9 8 8 8 9 9 9 8 8 8 8 8 9 11 10 11 10 10 10 10 9 9 9 9 9 8 7 7 7 7 6 7 8 8 8 6 6 6 5 6 6 5 5 4 3 4 3 4 5 4 4 4 3 5 5 5 5 6 5 6 5 9 13 14 15 9 9 8 9 9
12 13 11 9 12 11 11 11 11 13 13 13 11 10 10 9 8 8 8 9 8 9 9 9 9 8 8 8 11 10 11 11 10 10 10 10 10 10 10 9 10 8 8 7 7 8 7 7 6 9 9 7 7 6 5 6 5 5 3 4 3 3 4 4 4 4 3 4 5 5 5 5 5 5 5 5 5 7 12 12 13 12 5 10 8
12 10 11 11 12 12 12 13 13 15 13 12 10 8 8 9 9 9 9 9 9 8 8 8 9 9 9 9 9 10 11 11 12 11 10 10 9 9 9 10 10 10 10 9 9 8 9 9 7 7 9 10 9 8 6 6 6 5 4 5 4 3 4 4 3 3 3 4 4 4 5 5 4 5 4 5 5 5 8 11 12 12 14 5 6
11 11 11 13 14 12 12 13 11 12 12 12 11 9 8 9 8 8 8 9 10 8 8 8 8 9 9 10 10 9 9 10 11 12 10 11 10 10 9 10 10 8 9 10 10 9 9 10 9 7 7 10 9 9 9 7 5 5 5 5 4 3 3 3 3 3 4 3 3 4 3 4 5 4 5 4 4 5 4 7 9 10 11 12 12
9 11 10 10 9 9 9 10 10 11 11 10 9 8 7 7 6 7 7 8 8 8 8 9 9 8 9 10 11 10 9 10 11 11 11 10 10 11 11 13 12 11 10 10 9 10 9 9 11 8 5 5 9 9 9 8 7 6 5 4 4 4 2 3 3 3 4 2 1 1 3 4 4 3 4 3 4 4 4 4 4 4 6 11 12
9 8 9 8 9 8 8 9 10 10 8 7 7 7 7 8 8 4 6 9 9 8 8 9 8 9 10 10 10 10 10 11 11 12 12 11 10 9 10 8 10 11 11 11 10 11 13 12 10 11 9 6 5 8 9 10 8 8 6 5 3 3 3 3 3 2 2 2 1 1 4 2 4 3 3 3 4 3 3 3 4 4 3 7 12
6 7 9 10 11 12 10 12 10 8 9 9 9 9 9 7 6 10 12 9 9 8 8 8 8 8 9 10 10 10 9 11 12 11 12 11 11 9 10 9 8 9 10 12 13 13 12 12 10 8 12 10 7 7 8 10 11 6 5 5 4 3 3 2 2 1 1 1 0 2 1 3 2 3 2 3 3 3 3 4 3 3 4 5 6
8 8 11 13 11 9 11 11 7 8 10 11 11 10 10 11 11 11 9 6 7 9 9 8 8 6 6 8 9 10 11 10 11 12 12 11 11 10 10 11 11 10 10 8 8 8 10 10 11 8 5 11 9 11 11 12 4 8 9 4 2 2 2 2 1 0 0 1 1 1 1 2 3 2 2 3 3 3 3 3 3 3 3 4 3
10 11 11 8 8 9 9 8 8 9 9 9 9 10 8 6 6 4 6 2 2 2 3 3 4 6 7 7 8 9 11 11 11 11 13 13 13 11 10 10 12 11 10 9 10 10 10 12 14 13 10 3 5 8 12 9 7 6 6 7 3 2 2 1 1 2 3 2 1 2 2 3 3 3 3 3 3 3 2 3 3 2 1 2 2
6 5 6 9 8 9 8 8 9 8 8 8 8 6 4 2 2 2 3 3 4 2 1 1 4 6 9 7 7 8 9 9 9 9 9 10 12 12 11 12 12 11 13 12 12 12 12 11 10 9 12 11 7 10 11 8 8 14 6 2 3 3 0 10 7 2 2 3 3 4 3 4 3 2 2 5 5 4 3 3 4 3 2 1 1
8 9 10 10 9 12 12 11 9 10 8 7 7 5 5 4 4 4 4 3 3 3 4 4 7 8 7 8 9 5 5 6 6 7 7 8 8 8 10 13 14 13 12 11 13 15 15 15 16 14 15 14 11 9 11 9 10 8 10 7 2 1 7 1 8 3 2 3 4 4 4 4 4 4 5 5 4 4 5 4 3 3 3 3 2
9 10 10 10 8 8 7 7 7 7 8 7 7 7 7 8 7 6 5 4 6 5 10 12 8 9 10 4 3 6 5 5 5 5 6 5 8 9 8 8 11 11 12 12 11 10 14 15 16 15 15 14 15 12 12 10 10 12 8 1 4 6 8 6 9 6 1 3 3 4 5 6 4 5 5 5 5 5 4 5 4 4 4 3 3
11 6 5 6 6 6 7 8 8 7 6 6 7 7 6 7 9 10 9 10 11 8 5 4 7 6 4 6 6 5 6 6 6 5 4 5 6 6 8 9 10 10 10 10 11 13 13 15 14 14 15 11 9 13 16 15 7 10 9 8 2 1 5 12 8 6 2 4 4 6 7 6 5 5 6 6 6 5 5 4 5 5 4 4 4
5 4 5 5 7 8 7 8 7 7 6 6 8 9 9 8 8 9 9 10 11 10 7 6 4 6 6 7 6 6 6 6 6 6 6 5 5 5 6 7 9 11 12 13 14 13 11 9 12 13 11 11 14 14 14 11 16 14 14 10 2 3 6 0 7 13 6 8 8 3 4 6 5 6 7 7 7 7 6 6 6 5 5 4 4
3 6 7 7 6 5 5 5 6 6 6 7 9 9 9 10 10 9 10 9 8 7 5 5 5 5 7 6 6 6 6 6 6 7 6 6 6 7 7 8 8 7 8 11 12 13 16 15 13 11 11 10 11 11 10 14 14 12 12 10 4 4 5 1 3 1 6 6 4 10 9 2 3 7 7 7 6 6 7 7 6 6 6 5 5
3 2 2 3 4 4 5 5 6 6 6 7 9 9 9 9 10 10 12 9 5 4 4 5 5 5 7 7 6 6 6 5 6 6 6 7 7 9 10 11 11 10 8 6 7 10 11 12 16 17 15 14 12 12 14 13 15 12 12 12 9 5 4 2 4 7 1 3 7 12 11 13 12 10 7 7 8 7 6 6 6 5 5 5 5
1 1 3 4 4 5 5 6 6 6 7 9 9 11 9 9 11 11 11 10 8 6 6 6 4 4 7 6 6 7 6 7 6 7 7 7 8 8 9 10 9 9 10 12 11 11 12 13 13 13 15 17 14 14 12 10 10 10 9 8 12 13 14 14 13 12 10 5 3 5 8 11 13 6 9 8 7 7 7 6 7 6 6 6 5
Wind_Direction
195 170 196 185 153 146 135 124 118 107 108 102 102 103 99 91 89 88 86 86 85 82 81 81 80 80 83 87 90 94 95 93 87 91 90 81 83 78 79 83 80 78 78 74 75 79 80 82 82 82 83 82 81 82 82 83 81 81 81 81 82 83 83 77 71 65 71 79 79 83 83 83 81 79 76 73 74 74 72 68 65 67 67 70 70
160 172 166 148 145 140 133 132 121 116 109 104 105 108 99 94 93 91 92 90 88 85 84 85 83 84 86 89 92 90 89 90 92 93 88 82 84 86 84 83 80 79 76 74 75 77 81 83 84 84 83 82 81 82 83 86 89 87 85 84 84 84 81 71 66 66 69 77 86 81 81 82 83 82 81 78 75 75 76 75 71 68 69 70 70
135 149 160 157 147 143 139 133 124 121 114 113 115 108 102 104 101 98 94 91 88 86 88 88 86 85 87 88 89 89 93 98 99 84 77 86 86 86 82 80 81 78 78 78 78 80 83 86 87 86 83 82 83 86 90 92 90 87 87 87 85 84 80 75 70 66 65 66 70 76 80 82 83 82 83 82 79 75 75 78 76 74 77 77 77
138 153 151 148 140 136 138 133 125 121 117 117 117 112 111 109 102 99 96 93 91 91 89 88 89 89 91 93 91 90 89 94 94 92 88 76 82 85 84 82 80 80 81 80 81 86 91 93 90 85 78 76 81 88 92 91 89 89 89 88 88 85 80 73 69 70 70 73 67 60 70 78 83 84 84 83 81 78 75 79 82 83 83 82 81
139 144 142 137 138 144 140 133 130 130 126 124 123 119 114 107 104 102 98 94 91 90 91 93 93 90 88 93 95 97 100 98 93 91 82 81 82 84 83 82 82 82 80 80 85 91 95 93 89 81 74 76 81 92 97 95 93 94 93 91 88 84 76 71 67 62 69 64 52 54 60 78 82 86 87 86 88 87 83 83 79 73 72 76 76
144 143 142 136 141 144 144 140 136 133 131 128 124 120 113 109 106 105 101 98 97 94 93 93 93 90 90 92 97 101 100 97 94 89 87 87 86 85 88 87 84 81 82 85 91 95 98 95 87 79 74 77 85 98 103 99 97 94 92 90 87 83 78 72 64 56 48 42 42 46 60 76 84 87 88 87 86 87 85 83 84 82 80 80 81
144 147 141 141 140 148 150 143 139 137 133 129 128 119 116 115 112 107 103 101 99 96 93 92 93 92 91 91 94 98 100 99 93 89 90 90 89 91 90 89 87 86 87 89 93 99 100 95 88 80 75 79 90 96 99 97 96 94 91 90 87 80 70 61 53 45 42 37 41 42 46 62 79 89 92 93 91 83 81 84 84 84 83 83 80
136 144 145 143 143 154 152 147 144 139 135 131 129 121 121 120 116 109 104 101 98 97 96 96 96 96 93 94 95 97 102 100 95 95 96 98 100 98 95 91 89 88 86 92 97 102 100 91 88 83 81 83 91 96 97 98 95 94 91 87 76 69 62 57 52 48 48 50 44 50 57 58 62 71 82 78 88 91 90 88 87 85 82 79 73
141 146 143 142 149 150 146 144 145 140 136 134 129 128 127 124 118 112 107 104 100 97 97 97 98 100 99 97 99 98 100 104 95 97 99 99 95 93 95 95 93 92 93 96 103 104 99 95 87 84 86 88 90 93 92 90 91 90 86 80 74 70 66 61 54 46 47 47 51 56 57 63 74 81 85 85 80 78 76 74 75 77 80 79 77
138 137 141 140 146 146 141 145 143 140 138 135 131 131 130 126 117 111 108 105 104 102 100 100 101 102 104 104 102 102 99 98 102 103 95 92 92 96 97 97 95 94 95 102 108 106 103 94 88 86 88 91 92 93 92 91 88 87 86 83 79 74 67 62 58 48 55 53 55 58 76 80 78 88 92 88 84 79 77 78 83 82 80 76 75
137 139 136 138 145 148 152 140 138 140 138 136 136 133 131 127 120 115 113 108 105 106 104 103 103 103 104 106 106 104 103 95 83 82 88 92 91 90 92 96 95 97 101 107 109 108 100 95 89 90 90 92 92 91 90 89 89 87 85 83 81 76 71 68 52 56 54 57 61 67 75 81 79 85 94 89 86 84 82 83 85 86 82 79 75
140 142 143 144 151 154 150 141 143 142 140 139 138 137 135 131 125 121 117 116 113 111 109 107 106 105 107 107 107 103 94 94 91 90 93 96 98 97 100 95 94 96 99 105 109 105 103 96 89 87 88 93 92 92 91 90 91 88 86 85 81 78 79 75 59 61 60 63 70 77 80 86 92 93 89 88 87 85 84 81 81 80 82 83 76
146 149 149 151 153 155 147 147 143 144 146 145 143 140 139 136 131 128 126 123 120 116 114 111 110 108 106 107 107 106 103 101 100 99 100 102 100 96 92 95 96 98 102 106 106 105 101 90 85 79 81 91 93 93 93 92 91 90 88 85 83 82 77 66 66 64 65 67 69 71 77 85 97 100 96 93 89 87 80 76 74 74 73 72 74
148 151 153 154 156 156 152 147 147 151 151 149 145 144 143 140 137 135 132 128 125 124 121 118 116 114 110 108 108 107 106 107 108 108 104 99 97 100 97 93 94 97 102 107 103 100 98 84 76 71 73 89 94 93 92 92 93 91 89 88 86 82 71 69 60 61 60 61 67 67 77 83 83 87 89 84 83 79 75 75 77 75 73 71 70
149 153 152 152 155 155 153 149 152 155 151 149 145 150 147 145 143 142 138 134 130 131 129 126 124 122 121 119 114 105 111 113 113 112 114 106 101 98 96 96 97 101 104 106 102 97 84 80 68 68 75 90 95 91 89 85 82 79 74 68 62 48 47 50 47 49 52 52 58 70 73 91 94 92 91 87 83 82 85 82 78 78 76 76 75
149 149 146 149 150 151 151 155 154 153 152 148 149 152 151 148 146 145 140 136 134 133 133 131 131 131 129 127 122 116 112 117 117 112 114 118 110 105 106 105 106 104 107 110 98 94 81 70 66 68 75 80 82 81 80 77 72 71 69 65 59 54 49 49 50 47 44 36 35 53 75 90 95 93 90 92 86 83 82 81 81 80 77 74 73
144 145 147 149 150 151 152 156 155 151 148 150 151 153 151 147 148 145 141 137 136 136 136 136 135 135 133 132 129 120 115 114 113 113 109 112 108 105 110 113 111 110 112 116 108 92 79 73 72 75 78 80 82 81 79 75 71 67 63 61 59 55 49 46 47 41 46 46 44 34 65 91 94 95 96 88 88 88 84 81 79 79 78 76 71
148 150 153 153 155 158 157 154 153 147 145 152 153 158 154 150 150 147 145 140 140 139 138 138 135 133 128 118 115 118 117 114 112 110 104 100 99 100 109 116 115 113 115 119 102 92 80 79 79 81 83 83 84 83 81 78 74 67 61 55 54 50 42 41 41 31 30 32 39 69 84 88 96 101 92 91 90 86 85 83 82 79 76 73 72
154 156 154 155 161 160 158 156 153 139 142 147 151 163 157 152 150 152 145 140 140 138 137 133 129 125 122 121 111 94 90 96 103 105 105 103 107 113 120 121 122 119 118 120 114 99 88 85 84 85 86 87 85 83 81 77 74 69 65 60 57 56 45 41 30 29 28 31 35 50 80 102 106 96 94 94 93 90 87 86 83 81 78 77 79
161 158 162 167 165 165 156 153 157 155 158 152 154 152 159 150 152 154 147 144 142 139 133 131 130 127 123 117 110 100 95 102 108 108 106 98 98 106 118 124 126 127 124 123 121 104 100 94 91 88 87 87 84 82 81 80 77 73 68 64 62 58 48 44 31 22 22 25 38 67 93 109 109 97 98 96 93 95 96 90 84 82 81 82 83
167 171 167 170 170 166 159 166 171 168 164 158 153 154 160 150 154 155 150 145 141 139 135 130 128 127 123 120 112 106 105 107 107 112 106 108 112 112 118 126 129 131 128 128 122 116 108 102 98 93 89 85 80 74 76 79 79 76 72 66 64 58 46 47 39 32 32 51 66 75 91 88 99 100 94 86 89 98 93 87 85 82 82 83 82
173 174 180 171 173 175 173 173 169 171 164 159 158 150 151 154 154 156 150 144 141 137 135 137 136 135 132 125 120 118 114 111 117 118 118 120 119 123 127 130 131 127 135 133 130 121 111 105 103 98 94 88 79 77 73 65 67 72 70 70 66 64 52 50 45 37 37 55 82 92 93 100 92 93 90 88 85 83 86 86 83 85 89 88 83
179 177 181 179 178 177 179 176 174 172 166 162 162 153 158 157 157 158 152 149 147 145 145 143 145 144 143 133 128 124 121 120 124 124 126 125 126 129 132 130 130 134 133 135 131 120 108 105 100 97 93 86 80 80 75 73 67 63 64 62 70 69 66 55 47 39 32 8 79 102 101 98 92 89 91 88 85 87 83 87 93 93 88 85 84
183 183 175 176 176 183 184 179 177 174 170 169 165 159 161 161 162 159 155 153 153 153 151 150 150 149 145 141 135 131 126 122 122 120 118 119 125 126 130 129 132 135 134 131 125 101 96 93 91 87 82 81 87 83 83 75 71 66 65 62 64 66 67 61 55 44 32 26 340 115 104 95 97 96 94 91 87 89 91 92 93 90 90 91 89
181 167 166 180 182 181 181 183 178 176 176 173 169 168 170 164 166 163 163 159 160 156 156 155 155 153 151 148 144 135 132 131 130 124 121 124 123 128 129 133 133 133 128 106 83 86 80 79 75 72 77 85 88 86 93 86 75 76 72 65 63 62 71 66 55 51 38 29 355 90 87 100 107 102 95 96 99 95 93 95 95 95 92 89 88
155 181 185 179 186 183 180 179 178 181 181 179 179 172 170 173 172 171 168 166 164 162 161 163 161 160 156 151 142 136 138 137 137 134 132 133 132 136 138 137 135 134 123 104 97 98 93 90 88 83 75 77 80 82 80 95 98 83 80 70 64 57 62 63 59 57 40 30 13 53 104 104 102 101 106 105 97 97 100 97 93 92 91 90 89
190 195 187 182 183 185 182 171 181 182 186 179 175 172 183 179 175 175 172 174 167 164 170 169 171 165 160 156 150 152 149 149 145 145 147 146 144 148 150 151 146 142 133 120 114 110 107 104 97 93 89 87 81 79 79 78 86 96 84 74 65 63 57 59 61 60 44 42 28 36 94 109 107 111 110 106 107 106 103 102 100 94 91 90 91
189 196 190 189 183 188 185 176 181 184 187 180 177 180 184 182 181 172 184 178 172 173 174 175 170 172 166 165 160 159 157 155 156 153 157 153 156 155 154 152 150 147 129 126 124 118 112 107 106 98 95 87 95 84 85 80 77 85 93 82 79 73 59 53 67 63 58 47 32 37 35 83 121 111 109 111 115 113 105 108 104 103 100 97 91
199 201 195 192 197 187 184 186 184 188 189 183 183 183 184 183 182 180 188 176 184 176 174 170 174 177 173 168 165 160 163 159 160 160 153 160 157 159 159 163 160 151 132 131 131 129 121 121 115 107 96 97 97 95 93 81 79 74 91 91 82 73 63 53 73 69 57 53 47 35 38 27 21 107 112 118 116 106 110 107 104 102 99 99 92
205 198 195 201 196 190 188 190 187 188 188 187 189 183 185 188 188 184 186 179 190 181 171 174 179 177 178 176 173 168 169 167 163 160 158 163 164 161 163 168 168 157 144 139 142 131 131 126 123 123 117 109 100 101 102 94 78 77 79 94 81 84 77 75 73 74 71 63 51 44 33 30 31 55 122 123 115 110 115 107 109 106 104 101 101
197 203 203 203 194 193 199 192 190 187 186 192 192 190 184 191 190 186 183 186 188 186 179 179 183 185 181 178 176 175 169 169 165 163 165 162 166 167 172 170 173 166 155 144 146 140 135 134 139 136 134 129 120 113 109 101 93 81 82 90 95 94 88 71 72 78 75 65 59 54 35 36 36 31 52 120 113 120 116 121 115 115 111 106 107
200 209 203 195 191 200 199 199 193 188 190 196 190 193 190 190 188 186 186 184 185 193 186 183 187 186 181 182 181 178 176 174 170 167 166 167 170 174 172 173 180 167 161 149 146 140 132 127 125 122 122 118 118 112 110 111 102 97 94 92 94 91 84 82 81 71 79 71 68 53 52 43 38 39 33 43 124 126 121 119 116 115 116 119 115
212 207 198 187 198 197 198 200 195 192 194 196 192 195 192 190 189 191 187 182 188 190 192 190 188 186 183 183 185 180 181 174 177 173 168 170 170 171 177 183 180 166 157 151 138 131 125 124 118 123 119 116 114 107 98 93 105 102 90 83 88 83 71 78 75 70 74 74 68 69 58 55 44 43 35 39 31 81 132 126 127 122 119 118 111
203 202 189 202 199 196 197 194 198 197 197 196 191 192 192 191 191 191 187 185 190 192 193 192 190 191 185 185 187 183 184 181 173 176 172 169 173 178 180 184 180 163 151 148 143 144 136 134 137 127 129 129 127 129 122 107 92 88 84 69 62 68 76 72 57 57 57 68 68 67 65 55 56 48 42 34 34 32 46 124 128 125 130 121 119
198 197 201 204 192 197 190 197 195 200 196 199 194 194 190 190 189 191 190 189 191 195 192 192 192 193 189 188 190 186 186 182 178 174 178 175 175 181 184 187 173 158 156 159 148 148 143 144 147 132 128 118 120 123 118 118 119 99 65 69 65 51 60 69 64 47 46 51 64 65 59 59 55 52 48 38 34 28 32 37 56 124 116 121 117
202 203 204 195 200 199 193 197 193 200 200 200 197 193 192 191 191 192 191 193 194 197 195 194 193 190 192 195 193 188 186 186 181 180 180 182 180 182 187 182 175 164 162 161 152 153 151 144 156 146 137 138 133 122 118 117 105 97 76 73 71 53 65 55 61 59 25 47 63 68 59 62 56 64 55 53 41 26 29 35 38 34 112 136 134
204 197 197 195 201 199 195 196 194 199 199 199 197 193 187 191 192 192 195 194 198 199 197 194 193 193 192 198 199 193 190 186 185 183 184 188 186 186 185 181 176 172 168 166 165 159 154 154 160 168 150 147 143 133 124 118 110 97 86 73 50 63 53 16 52 53 40 56 64 69 75 59 67 60 62 58 52 45 24 35 34 35 18 55 101
207 201 196 193 199 195 195 198 197 196 195 195 194 191 189 188 191 193 192 198 202 199 197 194 199 194 192 199 196 197 193 191 188 186 187 189 188 186 183 180 177 177 175 168 170 163 161 158 158 168 161 146 147 145 139 126 115 107 86 72 64 66 60 55 51 55 66 60 51 72 81 78 71 62 64 65 67 52 40 25 27 26 20 32 47
209 204 196 201 195 193 195 200 195 194 196 191 187 188 184 189 192 191 198 204 204 202 196 199 199 196 197 195 194 196 194 194 191 192 192 187 189 192 187 182 179 177 177 176 165 165 163 164 158 153 154 150 150 147 139 130 115 100 86 68 64 60 58 59 59 72 77 81 83 87 78 72 78 66 71 69 65 63 55 32 37 25 11 24 36
206 200 200 196 198 193 193 197 199 192 186 181 171 179 179 186 193 203 216 212 204 200 203 204 197 201 198 194 193 196 193 195 196 194 194 190 189 188 186 186 185 177 177 177 172 169 169 164 165 156 145 112 111 130 132 122 103 93 91 76 59 64 58 56 65 68 86 78 92 64 95 74 85 86 79 82 71 71 61 52 43 30 22 20 34
205 197 195 200 200 197 185 200 198 182 178 181 184 182 188 192 202 201 210 203 201 199 203 206 204 206 199 197 194 196 199 196 196 196 199 191 190 183 176 178 184 182 180 186 180 174 172 165 151 154 148 138 139 143 140 128 121 87 69 71 61 35 53 55 60 64 101 126 1 110 111 99 99 101 106 85 84 74 75 63 51 42 30 32 24
215 197 199 202 201 197 196 202 179 189 193 192 191 193 196 199 196 205 201 183 193 198 208 204 208 205 205 204 201 200 200 203 201 198 198 195 192 186 179 179 178 183 186 179 174 166 158 149 147 143 177 156 156 165 160 133 145 160 149 141 38 29 34 41 73 68 339 264 230 157 166 147 147 142 100 96 93 98 93 83 80 60 45 44 38
203 198 203 196 195 196 202 199 191 193 201 198 190 201 204 208 205 198 182 179 237 235 233 208 193 201 209 210 208 204 202 206 204 206 201 196 194 187 186 181 183 176 173 169 163 165 168 164 166 162 155 140 137 173 175 179 138 126 109 96 170 141 242 285 271 235 183 216 241 193 200 179 180 173 154 127 135 137 131 130 118 112 90 74 67
202 196 194 198 198 199 197 195 194 196 198 200 198 201 177 137 67 92 112 131 180 159 160 167 203 213 218 212 215 207 204 204 200 204 211 207 196 190 183 182 184 183 180 173 173 172 167 167 171 168 156 151 173 187 198 187 151 137 153 196 154 139 309 230 194 203 147 212 195 209 198 200 190 183 158 167 179 170 173 155 152 155 161 156 118
204 199 196 198 197 200 200 194 191 194 197 190 184 158 125 113 85 56 62 73 59 111 163 212 210 214 216 211 216 203 203 205 202 199 203 207 205 203 196 192 186 180 178 178 178 179 177 174 175 172 178 170 176 181 195 202 188 199 138 130 91 272 223 117 140 242 160 207 230 215 210 196 191 193 188 196 186 187 172 171 168 160 164 168 155
209 210 201 201 193 200 195 194 194 193 195 185 171 160 170 169 160 161 176 189 210 188 206 210 200 205 213 196 191 199 204 202 201 200 197 212 211 194 189 200 187 176 181 178 182 184 184 178 182 181 187 193 174 168 186 215 206 214 214 149 149 181 175 173 142 220 113 220 222 218 217 205 198 192 204 193 191 193 187 179 175 176 174 172 178
222 199 193 197 199 194 194 194 195 196 185 173 165 164 172 182 190 197 199 200 210 224 217 208 198 211 196 199 204 205 213 213 215 206 200 203 217 203 185 191 192 185 183 177 181 189 194 192 183 190 193 172 154 179 185 193 188 239 235 226 84 338 144 138 194 86 208 232 226 214 228 219 205 198 201 206 197 189 200 186 182 182 181 181 179
209 166 195 194 194 198 190 195 195 188 181 166 173 177 181 185 193 205 205 210 212 218 193 206 197 187 205 212 205 212 211 220 227 230 226 222 214 221 204 198 206 197 185 189 187 188 192 201 194 193 180 181 181 182 187 175 184 208 213 215 151 77 187 1 150 172 157 172 216 248 270 221 216 217 203 201 199 195 191 197 187 187 187 187 185
183 193 197 200 198 196 195 191 193 180 180 175 177 188 189 189 196 199 214 220 215 218 193 200 190 194 209 213 212 213 214 216 217 218 223 230 226 224 215 211 205 214 215 201 187 185 189 184 184 187 191 192 190 192 173 188 200 206 185 219 157 144 187 286 229 96 151 162 206 189 205 190 233 234 222 205 200 200 199 195 192 185 187 189 187
217 216 217 187 194 191 196 192 201 183 181 183 185 192 194 189 198 204 212 216 207 213 182 208 207 193 216 214 216 215 213 217 220 217 211 214 221 220 222 217 209 197 186 214 190 182 190 194 190 186 187 192 198 195 194 194 201 208 199 190 170 127 143 208 204 199 302 208 173 194 194 181 201 220 191 206 201 202 200 196 193 193 193 192 193
245 219 221 207 201 196 197 203 205 187 186 190 188 195 196 196 204 204 209 211 202 195 201 221 209 208 219 215 208 214 208 216 214 224 214 208 215 216 218 217 211 203 191 187 193 191 191 192 195 198 196 196 198 200 205 208 205 202 196 189 194 183 187 187 194 195 187 163 124 193 185 199 203 178 209 195 194 198 198 194 197 196 194 195 199